Change the Weather History Date:

Monday, August 11, 2014

  Actual Average Record
Temperature  
Mean Temperature 69 °F -  
Max Temperature 82 °F 82 °F 93 °F (2000)
Min Temperature 56 °F 56 °F 51 °F (1996)
Cooling Degree Days 4    
Growing Degree Days 19 (Base 50)    
Moisture  
Dew Point 50 °F    
Average Humidity 55    
Maximum Humidity 79    
Minimum Humidity 27    
Precipitation  
Precipitation 0.00 in - - ()
Sea Level Pressure  
Sea Level Pressure 30.17 in    
Wind  
Wind Speed 7 mph (SSE)    
Max Wind Speed 12 mph    
Max Gust Speed -    
Visibility 10 miles    
Events      
Averages and records for this station are not official NWS values.
T = Trace of Precipitation, MM = Missing Value Source: NWS Daily Summary

Daily Weather History Graph

Daily Weather History Graph

Search for Another Location

Airport or City:

Trip Planner

Search our weather history database for the weather conditions in past years. The results will help you decide how hot, cold, wet, or windy it might be!

Date:

Astronomy

Aug. 11, 2014 Rise Set
Actual Time 6:07 AM MDT 8:00 PM MDT
Civil Twilight 5:38 AM MDT 8:29 PM MDT
Nautical Twilight 5:02 AM MDT 9:04 PM MDT
Astronomical Twilight 4:24 AM MDT 9:42 PM MDT
Moon 8:30 PM MDT (8/11) 7:15 AM MDT (8/11)
Length of Visible Light 14h 51m
Length of Day
13h 52m
Full, 98% of the Moon is Illuminated
Aug 11
Full
Aug 17
Last Quarter
Aug 25
New
Sep 2
First Quarter
Sep 8
Full

Hourly Weather History & Observations

Time (MDT) Temp. Dew Point Humidity Pressure Visibility Wind Dir Wind Speed Gust Speed Precip Events Conditions
12:58 AM 59.5 °F 51.4 °F 75% 30.21 in 10.0 mi South 5.8 mph - N/A   Scattered Clouds
1:58 AM 57.9 °F 51.3 °F 78% 30.21 in 10.0 mi South 6.9 mph - N/A   Scattered Clouds
2:58 AM 57.6 °F 50.4 °F 77% 30.20 in 10.0 mi South 6.9 mph - N/A   Scattered Clouds
3:58 AM 57.2 °F 50.5 °F 78% 30.19 in 10.0 mi South 9.2 mph - N/A   Scattered Clouds
4:58 AM 56.8 °F 50.2 °F 78% 30.20 in 10.0 mi South 9.2 mph - N/A   Partly Cloudy
5:58 AM 56.3 °F 50.0 °F 79% 30.19 in 10.0 mi South 6.9 mph - N/A   Clear
6:58 AM 57.4 °F 50.4 °F 77% 30.21 in 10.0 mi SSW 8.1 mph - N/A   Clear
7:58 AM 61.0 °F 50.7 °F 69% 30.22 in 10.0 mi SW 6.9 mph - N/A   Clear
8:58 AM 64.9 °F 51.4 °F 62% 30.23 in 10.0 mi SW 4.6 mph - N/A   Clear
9:58 AM 69.1 °F 52.5 °F 55% 30.22 in 10.0 mi SSW 5.8 mph - N/A   Partly Cloudy
10:58 AM 72.5 °F 51.1 °F 47% 30.21 in 10.0 mi South 3.5 mph - N/A   Partly Cloudy
11:58 AM 76.5 °F 51.1 °F 41% 30.20 in 10.0 mi East 5.8 mph - N/A   Partly Cloudy
12:58 PM 77.9 °F 48.7 °F 36% 30.19 in 10.0 mi South 6.9 mph - N/A   Partly Cloudy
1:58 PM 80.6 °F 47.1 °F 31% 30.17 in 10.0 mi NNE 3.5 mph - N/A   Scattered Clouds
2:58 PM 81.1 °F 47.8 °F 31% 30.15 in 10.0 mi East 6.9 mph - N/A   Scattered Clouds
3:58 PM 81.1 °F 47.5 °F 31% 30.13 in 10.0 mi East 6.9 mph - N/A   Scattered Clouds
4:58 PM 82.8 °F 47.3 °F 29% 30.12 in 10.0 mi ESE 10.4 mph - N/A   Scattered Clouds
5:58 PM 81.3 °F 44.6 °F 27% 30.11 in 10.0 mi ENE 3.5 mph - N/A   Scattered Clouds
6:58 PM 78.6 °F 48.0 °F 34% 30.12 in 10.0 mi East 5.8 mph - N/A   Scattered Clouds
7:58 PM 72.3 °F 49.6 °F 45% 30.13 in 10.0 mi SE 6.9 mph - N/A   Partly Cloudy
8:58 PM 68.9 °F 48.9 °F 49% 30.14 in 10.0 mi South 10.4 mph - N/A   Partly Cloudy
9:58 PM 66.0 °F 52.5 °F 62% 30.14 in 10.0 mi South 9.2 mph - N/A   Partly Cloudy
10:58 PM 65.5 °F 51.6 °F 61% 30.13 in 10.0 mi South 11.5 mph - N/A   Partly Cloudy
11:58 PM 63.0 °F 51.6 °F 66% 30.13 in 10.0 mi South 9.2 mph - N/A   Clear